Chillicothe, MO

11:28 PM CST on December 07, 2019 (GMT -0600)
Chillicothe

Weather History for KCDJ - October, 2019

Change the Weather History Date:

Thursday, October 10, 2019

  Actual Average (KIRK) Record (KIRK)
Temperature  
Mean Temperature 58 °F 55 °F  
Max Temperature 70 °F 66 °F 90 °F (1963)
Min Temperature 44 °F 44 °F 24 °F (1964)
Degree Days  
Heating Degree Days 8 10  
Month to date heating degree days 91  
Since 1 July heating degree days 198  
Cooling Degree Days 0 1  
Month to date cooling degree days 10  
Year to date cooling degree days 937  
Growing Degree Days 8 (Base 50)    
Moisture  
Dew Point 59 °F    
Average Humidity 92    
Maximum Humidity 100    
Minimum Humidity 84    
Precipitation  
Precipitation 0.62 in 0.11 in 1.73 in (1969)
Month to date precipitation 1.09  
Year to date precipitation 32.61  
Sea Level Pressure  
Sea Level Pressure 29.83 in    
Wind  
Wind Speed 6 mph (SSE)    
Max Wind Speed 14 mph    
Max Gust Speed 28 mph    
T = Trace of Precipitation, MM = Missing Value Source: NWS Daily Summary

Daily Weather History Graph

Daily Weather History Graph

Search for Another Location

Airport or City:

Astronomy

Oct. 10, 2019 Rise Set
Actual Time 7:19 AM CDT 6:42 PM CDT
Civil Twilight 6:52 AM CDT 7:09 PM CDT
Nautical Twilight 6:20 AM CDT 7:41 PM CDT
Astronomical Twilight 5:49 AM CDT 8:12 PM CDT
Moon 5:44 PM CDT (10/10) 4:04 AM CDT (10/10)
Length of Visible Light 12h 17m
Length of Day
11h 23m
Waxing Gibbous, 91% of the Moon is Illuminated
Oct 10
Waxing Gibbous
Oct 13
Full
Oct 21
Last Quarter
Oct 27
New
Nov 4
First Quarter

Hourly Weather History & Observations

Time (CDT) Temp. Windchill Dew Point Humidity Pressure Visibility Wind Dir Wind Speed Gust Speed Precip Events Conditions
12:52 AM 57.9 °F - 57.0 °F 97% 29.91 in - Calm Calm - N/A   Unknown
1:52 AM 61.0 °F - 57.0 °F 87% 29.89 in - Variable 3.5 mph - N/A   Unknown
2:52 AM 62.1 °F - 57.0 °F 84% 29.86 in - SE 6.9 mph - N/A   Unknown
3:52 AM 62.1 °F - 57.0 °F 84% 29.82 in - ESE 9.2 mph 17.3 mph N/A   Unknown
5:52 AM 61.0 °F - 60.1 °F 97% 29.85 in - Variable 3.5 mph - 0.37 in   Unknown
6:52 AM 61.0 °F - 60.1 °F 97% 29.84 in - Variable 5.8 mph - 0.02 in   Unknown
7:52 AM 61.0 °F - 61.0 °F 100% 29.83 in - ESE 9.2 mph - 0.10 in   Unknown
9:52 AM 63.0 °F - 62.1 °F 97% 29.86 in - SE 5.8 mph - N/A   Unknown
11:52 AM 64.0 °F - 63.0 °F 96% 29.81 in - SE 8.1 mph - 0.07 in   Unknown
12:52 PM 64.9 °F - 64.0 °F 97% 29.80 in - SE 8.1 mph 23.0 mph 0.04 in   Unknown
1:52 PM 66.0 °F - 64.9 °F 96% 29.77 in - SSE 9.2 mph 19.6 mph N/A   Unknown
2:52 PM 68.0 °F - 64.9 °F 90% 29.75 in - SSE 5.8 mph - N/A   Unknown
3:52 PM 69.1 °F - 66.0 °F 90% 29.74 in - South 8.1 mph - N/A   Unknown
4:52 PM 70.0 °F - 66.0 °F 87% 29.73 in - South 6.9 mph - N/A   Unknown
5:52 PM 70.0 °F - 66.0 °F 87% 29.73 in - SSE 6.9 mph 19.6 mph N/A   Unknown
6:52 PM 69.1 °F - 66.0 °F 90% 29.74 in - SSE 8.1 mph - N/A   Unknown
7:52 PM 55.0 °F - 53.1 °F 93% 29.81 in - West 13.8 mph 27.6 mph 0.01 in   Unknown
9:52 PM 46.0 °F 40.2 °F 44.1 °F 93% 29.93 in - WNW 12.7 mph 25.3 mph 0.01 in   Unknown
10:52 PM 45.0 °F 42.6 °F 43.0 °F 93% 29.95 in - Variable 4.6 mph 18.4 mph N/A   Unknown
11:52 PM 44.1 °F 39.0 °F 39.9 °F 85% 29.99 in - WNW 9.2 mph 24.2 mph N/A   Unknown